sat.trackr.live / text

‹ back to catalog

BEIDOU-2 G7 (C03)

NORAD 41586 · 2016-037A

PAYLOAD ACTIVE UNKNOWN

§ Identity

Operator
Country
PRC
Launch date
2016-06-12
Launch site
XICLF
Launch vehicle
Mass (kg)
RCS (m²)
19.01

Purposes: comms, nav

External: N2YO · Heavens-Above · Gunter

§ Orbital elements

Epoch: 2026-09-20T00:20:23.924256Z

Period
1,436.08 min
Inclination
1.9498°
Eccentricity
0.0005252
Mean motion
1.00272723 rev/d
Perigee alt
35,764.2 km
Apogee alt
35,808.5 km
Semi-major
42,164.5 km
B*
0.0000e+0
RAAN
69.6707°
Arg perigee
353.7734°
Mean anomaly
51.1573°
Rev number
784

§ Raw data

BEIDOU-2 G7 (C03)1 41586U 16037A   26263.01416579 -.00000357  00000+0  00000+0 0  99972 41586   1.9498  69.6707 0005252 353.7734  51.1573  1.00272723  7843

JSON: /api/v1/satellites/41586 · /tle

For live sub-satellite position, see the globe view (requires WebGL).

§ Visibility from observer

Set your observer location to see the next 7 days of passes ≥ 10°. The values pass through the URL so the page stays shareable.

No JS? Fill the form by hand. The geolocation button needs JavaScript.